Location: アルンシュタイン
(50.0000°N, 10.0000°E)
Time: 06:57:01
(UTC+02:00)

YUBILEINY - Visible Passes

Search period start: 10 August 2022 00:00
Search period end: 20 August 2022 00:00
Orbit: 1478 x 1509 km, 82.5° (Epoch: 09 August)

Date Brightness Start Highest point End Pass type
(mag) Time Alt. Az. Time Alt. Az. Time Alt. Az.
10 Aug ? 00:07:51 10° N 00:15:57 40° ENE 00:20:48 23° ESE visible
10 Aug ? 02:04:41 10° NNW 02:13:10 58° W 02:16:41 37° SSW visible
10 Aug ? 04:04:25 10° NW 04:07:56 13° WNW 04:11:27 10° W visible
10 Aug ? 23:18:37 10° N 23:25:30 25° NE 23:31:25 13° ESE visible
11 Aug ? 01:14:55 10° N 01:23:42 88° E 01:27:17 41° S visible
11 Aug ? 03:12:55 10° NNW 03:19:23 24° WNW 03:23:11 18° WSW visible
11 Aug ? 22:29:50 10° N 22:34:38 15° NE 22:39:25 10° E visible
12 Aug ? 00:25:20 10° N 00:33:54 55° ENE 00:37:54 33° SE visible
12 Aug ? 02:22:34 10° NNW 02:30:28 41° W 02:33:48 30° SW visible
12 Aug ? 23:35:57 10° N 23:43:44 34° ENE 23:48:33 21° ESE visible
13 Aug ? 01:32:37 10° NNW 01:41:14 68° W 01:44:26 42° SSW visible
13 Aug ? 03:31:36 10° NW 03:36:17 16° WNW 03:40:19 11° W visible
13 Aug ? 22:46:48 10° N 22:53:10 22° NE 22:59:11 11° E visible
14 Aug ? 00:42:54 10° N 00:51:40 77° ENE 00:55:05 42° SSE visible
14 Aug ? 02:40:38 10° NNW 02:47:37 28° W 02:50:58 22° WSW visible
14 Aug ? 21:58:17 10° NNE 22:02:11 13° NE 22:06:04 10° ENE visible
14 Aug ? 23:53:23 10° N 00:01:46 48° ENE 00:05:44 31° SE visible
15 Aug ? 01:50:26 10° NNW 01:58:37 48° W 02:01:38 35° SW visible
15 Aug ? 23:04:03 10° N 23:11:30 30° ENE 23:16:24 18° ESE visible
16 Aug ? 01:00:34 10° NNW 01:09:17 78° W 01:12:18 46° S visible
16 Aug ? 02:59:03 10° NNW 03:04:36 19° WNW 03:08:11 15° WSW visible
16 Aug ? 22:15:01 10° N 22:20:49 19° NE 22:26:34 10° E visible
17 Aug ? 00:10:55 10° N 00:19:37 67° ENE 00:22:59 41° SE visible
17 Aug ? 02:08:24 10° NNW 02:15:50 33° W 02:18:52 26° WSW visible
17 Aug ? 21:26:59 10° NNE 21:29:41 11° NE 21:32:22 10° ENE visible
17 Aug ? 23:21:27 10° N 23:29:37 42° ENE 23:33:40 27° ESE visible
18 Aug ? 01:18:20 10° NNW 01:26:43 55° W 01:29:34 41° SW visible
18 Aug ? 03:18:28 10° NW 03:21:24 12° WNW 03:24:20 10° W visible
18 Aug ? 22:32:11 10° N 22:39:13 26° ENE 22:44:22 16° ESE visible
19 Aug ? 00:28:32 10° N 00:37:18 88° W 00:40:16 48° S visible
19 Aug ? 02:26:39 10° NNW 02:32:52 23° WNW 02:36:09 18° WSW visible
19 Aug ? 21:43:18 10° N 21:48:25 16° NE 21:53:28 10° E visible
19 Aug ? 23:38:56 10° N 23:47:32 58° ENE 23:50:59 38° SE visible
